Weather History for Karup, Denmark

Change the Weather History Date:

Saturday, March 30, 2013

  Actual Average Record
Temperature  
Mean Temperature 30 °F -  
Max Temperature 38 °F 50 °F 60 °F (1998)
Min Temperature 21 °F 35 °F 21 °F (2013)
Degree Days  
Heating Degree Days 36    
Moisture  
Dew Point 23 °F    
Average Humidity 77    
Maximum Humidity 95    
Minimum Humidity 39    
Precipitation  
Precipitation 0.00 in - - ()
Sea Level Pressure  
Sea Level Pressure 29.85 in    
Wind  
Wind Speed 6 mph ()    
Max Wind Speed 14 mph    
Max Gust Speed -    
Visibility 6.7 miles    
Events Snow    
Averages and records for this station are not official NWS values.
T = Trace of Precipitation, MM = Missing Value Source: Averaged Metar Reports

Daily Weather History Graph

Daily Weather History Graph

Search for Another Location

Airport:

Trip Planner

Search our weather history database for the weather conditions in past years. The results will help you decide how hot, cold, wet, or windy it might be!

Date:

Astronomy

Mar. 30, 2013 Rise Set
Actual Time 5:58 AM CET 6:58 PM CET
Civil Twilight 5:20 AM CET 7:36 PM CET
Nautical Twilight 4:34 AM CET 8:23 PM CET
Astronomical Twilight 3:43 AM CET 9:14 PM CET
Moon 11:33 PM CET (3/30) 7:00 AM CET (3/30)
Length of Visible Light 14h 15m
Length of Day
12h 59m
Waning Gibbous, 88% of the Moon is Illuminated
Mar 30
Waning Gibbous
Apr 3
Last Quarter
Apr 10
New
Apr 18
First Quarter
Apr 25
Full

Hourly Weather History & Observations

Time (CET) Temp. Windchill Dew Point Humidity Pressure Visibility Wind Dir Wind Speed Gust Speed Precip Events Conditions
12:20 AM 24.8 °F 19.1 °F 23.0 °F 93% 29.83 in 5.0 mi North 4.6 mph - N/A   Mostly Cloudy
12:52 AM 24.8 °F 20.5 °F 23.0 °F 93% 29.83 in 5.0 mi North 3.5 mph - N/A   Mostly Cloudy
1:00 AM 25 °F - 23 °F 87% 29.85 in 5 mi North 3.5 mph - -   Mist
1:21 AM 26.6 °F - 24.8 °F 93% 29.83 in 5.0 mi North 2.3 mph - N/A   Unknown
1:51 AM 24.8 °F 19.1 °F 23.0 °F 93% 29.80 in 5.6 mi North 4.6 mph - N/A   Unknown
2:21 AM 21.2 °F 13.6 °F 19.4 °F 93% 29.80 in 5.6 mi North 5.8 mph - N/A   Unknown
2:51 AM 23.0 °F 17.0 °F 21.2 °F 93% 29.80 in 5.6 mi North 4.6 mph - N/A   Unknown
3:20 AM 23.0 °F 17.0 °F 21.2 °F 93% 29.80 in 5.6 mi North 4.6 mph - N/A   Mostly Cloudy
3:50 AM 21.2 °F 13.6 °F 19.4 °F 93% 29.80 in 5.6 mi North 5.8 mph - N/A   Mostly Cloudy
4:00 AM 21 °F - 20 °F 95% 29.83 in 6 mi North 5.8 mph - -   Mist
4:21 AM 23.0 °F 15.8 °F 21.2 °F 93% 29.80 in - North 5.8 mph - N/A   Clear
4:51 AM 23.0 °F 17.0 °F 21.2 °F 93% 29.80 in - North 4.6 mph - N/A   Clear
5:21 AM 23.0 °F 15.8 °F 21.2 °F 93% 29.80 in - North 5.8 mph - N/A   Clear
5:50 AM 23.0 °F 17.0 °F 21.2 °F 93% 29.80 in - North 4.6 mph - N/A   Clear
6:20 AM 23.0 °F 17.0 °F 19.4 °F 86% 29.80 in - North 4.6 mph - N/A   Clear
6:50 AM 23.0 °F 17.0 °F 21.2 °F 93% 29.80 in - North 4.6 mph - N/A   Clear
7:00 AM 24 °F - 22 °F 90% 29.84 in 7 mi North 4.6 mph - -   Mostly Cloudy
7:20 AM 28.4 °F 23.3 °F 24.8 °F 86% 29.83 in - North 4.6 mph - N/A   Clear
7:50 AM 30.2 °F 23.4 °F 24.8 °F 80% 29.83 in - NNE 6.9 mph - N/A   Clear
8:20 AM 32.0 °F 24.2 °F 26.6 °F 80% 29.83 in 6.2 mi NNE 9.2 mph - N/A   Mostly Cloudy
8:50 AM 32.0 °F 23.0 °F 26.6 °F 80% 29.83 in 6.2 mi NE 11.5 mph - N/A   Mostly Cloudy
9:20 AM 33.8 °F 24.8 °F 24.8 °F 70% 29.83 in 6.2 mi NE 12.7 mph - N/A   Mostly Cloudy
9:50 AM 33.8 °F 25.3 °F 24.8 °F 70% 29.83 in 6.2 mi ENE 11.5 mph - N/A   Mostly Cloudy
10:00 AM 34 °F - 24 °F 55% 29.85 in 16 mi NE 11.5 mph - -   Partly Cloudy
10:20 AM 33.8 °F 25.3 °F 23.0 °F 65% 29.83 in 6.2 mi NE 11.5 mph - N/A   Mostly Cloudy
10:50 AM 33.8 °F 26.4 °F 23.0 °F 65% 29.83 in 6.2 mi NNE 9.2 mph - N/A   Mostly Cloudy
11:20 AM 35.6 °F 27.5 °F 21.2 °F 56% 29.83 in 6.2 mi NE 11.5 mph - N/A   Mostly Cloudy
11:50 AM 37.4 °F 28.9 °F 21.2 °F 52% 29.83 in 6.2 mi ENE 13.8 mph - N/A   Scattered Clouds
12:20 PM 35.6 °F 27.1 °F 19.4 °F 52% 29.83 in 6.2 mi ENE 12.7 mph - N/A   Scattered Clouds
12:50 PM 37.4 °F 30.3 °F 21.2 °F 52% 29.83 in 6.2 mi ENE 10.4 mph - N/A   Scattered Clouds
1:00 PM 37 °F - 21 °F 39% 29.85 in 16 mi NE 10.4 mph - -   Partly Cloudy
1:20 PM 37.4 °F 29.3 °F 19.4 °F 48% 29.83 in 6.2 mi NE 12.7 mph - N/A   Mostly Cloudy
1:50 PM 37.4 °F 29.8 °F 19.4 °F 48% 29.83 in 6.2 mi ENE 11.5 mph - N/A   Mostly Cloudy
2:20 PM 35.6 °F 28.0 °F 21.2 °F 56% 29.83 in 6.2 mi ENE 10.4 mph - N/A   Mostly Cloudy
2:50 PM 35.6 °F 28.0 °F 21.2 °F 56% 29.86 in 6.2 mi NE 10.4 mph - N/A   Mostly Cloudy
3:20 PM 35.6 °F 27.5 °F 21.2 °F 56% 29.86 in 6.2 mi NE 11.5 mph - N/A   Mostly Cloudy
3:50 PM 35.6 °F 27.5 °F 23.0 °F 60% 29.86 in 6.2 mi NE 11.5 mph - N/A   Mostly Cloudy
4:00 PM 35 °F - 23 °F 51% 29.87 in 16 mi NE 10.4 mph - -   Overcast
4:20 PM 33.8 °F 26.4 °F 23.0 °F 65% 29.86 in 6.2 mi NE 9.2 mph - N/A   Mostly Cloudy
4:50 PM 33.8 °F 27.0 °F 24.8 °F 70% 29.86 in 6.2 mi NE 8.1 mph - N/A   Mostly Cloudy
5:20 PM 33.8 °F 26.4 °F 26.6 °F 75% 29.86 in 6.2 mi NE 9.2 mph - N/A Snow Light Snow
5:50 PM 32.0 °F 24.8 °F 28.4 °F 87% 29.86 in 6.2 mi NNE 8.1 mph - N/A Snow Light Snow
6:20 PM 32.0 °F 25.6 °F 26.6 °F 80% 29.89 in 6.2 mi NE 6.9 mph - N/A Snow Light Snow
6:50 PM 32.0 °F 27.5 °F 26.6 °F 80% 29.89 in 6.2 mi NNE 4.6 mph - N/A Snow Light Snow
7:00 PM 31 °F - 27 °F 77% 29.92 in 6 mi North 3.5 mph - - Snow Light Snow
7:20 PM 32.0 °F 26.4 °F 24.8 °F 75% 29.89 in 6.2 mi NNE 5.8 mph - N/A   Mostly Cloudy
7:50 PM 28.4 °F 24.6 °F 23.0 °F 80% 29.89 in 6.2 mi NNW 3.5 mph - N/A   Mostly Cloudy
8:20 PM 28.4 °F - 24.8 °F 86% 29.89 in 6.2 mi West 2.3 mph - N/A   Mostly Cloudy
8:50 PM 28.4 °F 23.3 °F 23.0 °F 80% 29.92 in 6.2 mi NNW 4.6 mph - N/A   Mostly Cloudy
9:20 PM 28.4 °F 23.3 °F 24.8 °F 86% 29.92 in 6.2 mi NW 4.6 mph - N/A   Mostly Cloudy
9:50 PM 28.4 °F 23.3 °F 24.8 °F 86% 29.92 in 6.2 mi NW 4.6 mph - N/A   Mostly Cloudy
10:00 PM 27 °F - 24 °F 82% 29.94 in 9 mi NNW 4.6 mph - -   Partly Cloudy
10:20 PM 26.6 °F 20.0 °F 23.0 °F 86% 29.92 in 6.2 mi NNW 5.8 mph - N/A   Mostly Cloudy
10:50 PM 24.8 °F 19.1 °F 21.2 °F 86% 29.92 in 6.2 mi NNW 4.6 mph - N/A   Mostly Cloudy
11:20 PM 24.8 °F 19.1 °F 21.2 °F 86% 29.92 in 6.2 mi North 4.6 mph - N/A   Mostly Cloudy
11:50 PM 24.8 °F 19.1 °F 19.4 °F 80% 29.92 in 6.2 mi NNW 4.6 mph - N/A   Mostly Cloudy